Hlavní strana
METAR-TAF:

METAR-TAF

Letiště :

Savonlinna, Finsko

zeměpisná šířka: 61-57N, zeměpisná délka: 028-57E, výška: 95 m

Aktuální stav počasí

Zpráva byla vytvořena před 21 minutami, v 18:50 UTC
Východní vítr 10 kt s nárazy do 20 kt
Teplota -9°C
Vlhkost vzduchu 92%
Tlak 996 hPa
Viditelnost 10 km a více
Zataženo ve výšce 3000 ft
slabé sněžení

METAR: EFSA 221850Z AUTO 10010G20KT 9999 -SN OVC030 M09/M10 Q0996

Čas: 21:11 (19:11 UTC)


TAF: chybějící

Stav a předpovědi počasí z více než 4 000 letišť (zprávy METAR a TAF).

Červené a žluté tečky na mapě představují dostupné meteorologické stanice.

Když kurzor umístíte na tečku, zobrazí se název stanice.

Pak kliknutím zobrazíte stav a předpověď počasí.

Chcete-li změnit mapu, kliknutím na zelené tlačítko se znaménkem +mapu přiblížíte, kliknutím na zelené tlačítko se znaménkem – mapu oddálíte a kliknutím na zelené šipky přejdete na sousední mapy.


METAR-TAF: